,,,PA_Meas_PMT16A,,PR_Meas_QMR101_102,,RH_Meas_QMH101,,SR_Meas_QMS101,,TA_Meas_QMH101,,GenWind,,GenWind,
date,time,status,PA,status,PR,status,RH,status,SR,status,TA,status,DirAvg,status,SpdAvg,
2009-06-09, 00:00:04,VALID,1001.85,VALID,0,VALID,92.0743,VALID,0.112286,VALID,23.2329,VALID,47,VALID,0.584766,
2009-06-09, 00:01:04,VALID,1001.88,VALID,0,VALID,92.1506,VALID,0,VALID,23.2329,VALID,47,VALID,0.544531,
2009-06-09, 00:02:04,VALID,1001.83,VALID,0,VALID,91.6775,VALID,0,VALID,23.2134,VALID,27,VALID,0.716016,
2009-06-09, 00:03:04,VALID,1001.84,VALID,0,VALID,91.8759,VALID,0,VALID,23.1726,VALID,27,VALID,0.534375,
2009-06-09, 00:04:04,VALID,1001.85,VALID,0,VALID,92.059,VALID,0.112286,VALID,23.1939,VALID,27,VALID,0.183984,
2009-06-09, 00:05:04,VALID,1001.84,VALID,0,VALID,92.1429,VALID,0,VALID,23.1957,VALID,27,VALID,0.144531,
2009-06-09, 00:06:04,VALID,1001.82,VALID,0,VALID,92.2116,VALID,0,VALID,23.1957,VALID,27,VALID,0.142188,
2009-06-09, 00:07:04,VALID,1001.82,VALID,0,VALID,92.2955,VALID,0,VALID,23.1549,VALID,27,VALID,0.194141,
2009-06-09, 00:08:04,VALID,1001.85,VALID,0,VALID,92.2421,VALID,0,VALID,23.1354,VALID,27,VALID,0.548828,
2009-06-09, 00:09:04,VALID,1001.83,VALID,0,VALID,91.9751,VALID,0,VALID,23.1159,VALID,27,VALID,0.686328,
2009-06-09, 00:10:04,VALID,1001.82,VALID,0,VALID,91.9064,VALID,0,VALID,23.0573,VALID,58,VALID,0.712109,
2009-06-09, 00:11:04,VALID,1001.86,VALID,0,VALID,92.5473,VALID,0,VALID,23.0573,VALID,62,VALID,0.686328,
2009-06-09, 00:12:04,VALID,1001.83,VALID,0,VALID,92.4023,VALID,0,VALID,23.0964,VALID,72,VALID,0.7,
2009-06-09, 00:13:04,VALID,1001.81,VALID,0,VALID,91.7767,VALID,0,VALID,23.0166,VALID,78,VALID,0.71875,
2009-06-09, 00:14:04,VALID,1001.79,VALID,0,VALID,91.9369,VALID,0.112286,VALID,23.0183,VALID,78,VALID,0.438281,
2009-06-09, 00:15:04,VALID,1001.8,VALID,0,VALID,92.0132,VALID,0.112286,VALID,22.9988,VALID,78,VALID,0.292188,
2009-06-09, 00:16:04,VALID,1001.74,VALID,0,VALID,92.3184,VALID,0,VALID,22.9776,VALID,78,VALID,0.151953,
2009-06-09, 00:17:04,VALID,1001.77,VALID,0,VALID,92.41,VALID,0,VALID,23.0183,VALID,78,VALID,0.239844,
2009-06-09, 00:18:04,VALID,1001.76,VALID,0,VALID,92.3871,VALID,0.112286,VALID,22.9776,VALID,79,VALID,0.454688,
2009-06-09, 00:19:04,VALID,1001.72,VALID,0,VALID,92.3794,VALID,0,VALID,22.9793,VALID,81,VALID,0.324219,
2009-06-09, 00:20:04,VALID,1001.72,VALID,0,VALID,92.4405,VALID,0,VALID,22.9793,VALID,81,VALID,0.257422,
2009-06-09, 00:21:04,VALID,1001.71,VALID,0,VALID,92.6999,VALID,0,VALID,23.0183,VALID,81,VALID,0.333594,
2009-06-09, 00:22:04,VALID,1001.74,VALID,0,VALID,92.6617,VALID,0,VALID,23.0378,VALID,81,VALID,0.0792969,
2009-06-09, 00:23:04,VALID,1001.71,VALID,0,VALID,92.4863,VALID,0,VALID,23.0183,VALID,81,VALID,0,
2009-06-09, 00:24:04,VALID,1001.73,VALID,0,VALID,92.5549,VALID,0,VALID,23.0166,VALID,81,VALID,0.0816406,
2009-06-09, 00:25:04,VALID,1001.72,VALID,0,VALID,92.532,VALID,0.112286,VALID,22.9971,VALID,81,VALID,0.0105469,
2009-06-09, 00:26:04,VALID,1001.69,VALID,0,VALID,92.6388,VALID,0,VALID,22.9988,VALID,81,VALID,0.0941406,
2009-06-09, 00:27:04,VALID,1001.69,VALID,0,VALID,92.6541,VALID,0,VALID,23.0183,VALID,81,VALID,0.485547,
2009-06-09, 00:28:04,VALID,1001.69,VALID,0,VALID,92.532,VALID,0,VALID,23.0183,VALID,82,VALID,0.404687,
2009-06-09, 00:29:04,VALID,1001.7,VALID,0,VALID,92.3489,VALID,0,VALID,22.9988,VALID,82,VALID,0.176172,
2009-06-09, 00:30:04,VALID,1001.68,VALID,0,VALID,92.3184,VALID,0,VALID,22.9385,VALID,82,VALID,0,
2009-06-09, 00:31:04,VALID,1001.66,VALID,0,VALID,92.4252,VALID,0,VALID,22.9793,VALID,82,VALID,0,
2009-06-09, 00:32:04,VALID,1001.64,VALID,0,VALID,92.6694,VALID,0,VALID,22.9776,VALID,82,VALID,0.0730469,
2009-06-09, 00:33:04,VALID,1001.64,VALID,0,VALID,92.7228,VALID,0,VALID,23.0183,VALID,82,VALID,0.271875,
2009-06-09, 00:34:04,VALID,1001.62,VALID,0,VALID,92.6694,VALID,0,VALID,23.0183,VALID,82,VALID,0.286328,
2009-06-09, 00:35:04,VALID,1001.63,VALID,0,VALID,92.6541,VALID,0,VALID,23.0378,VALID,82,VALID,0.333984,
2009-06-09, 00:36:04,VALID,1001.61,VALID,0,VALID,92.7228,VALID,0,VALID,23.0769,VALID,82,VALID,0.323438,
2009-06-09, 00:37:04,VALID,1001.63,VALID,0,VALID,92.6694,VALID,0,VALID,23.0964,VALID,82,VALID,0.375781,
2009-06-09, 00:38:04,VALID,1001.61,VALID,0,VALID,92.4634,VALID,0,VALID,23.0964,VALID,82,VALID,0.344531,
2009-06-09, 00:39:04,VALID,1001.59,VALID,0,VALID,92.1963,VALID,0,VALID,23.0769,VALID,82,VALID,0.492188,
2009-06-09, 00:40:04,VALID,1001.58,VALID,0,VALID,92.1429,VALID,0,VALID,23.0964,VALID,82,VALID,0.557031,
2009-06-09, 00:41:04,VALID,1001.6,VALID,0,VALID,92.059,VALID,0.112286,VALID,23.0751,VALID,78,VALID,0.787891,
2009-06-09, 00:42:04,VALID,1001.61,VALID,0,VALID,92.326,VALID,0,VALID,23.1354,VALID,72,VALID,0.934375,
2009-06-09, 00:43:04,VALID,1001.6,VALID,0,VALID,91.9598,VALID,0,VALID,23.1531,VALID,70,VALID,1.04844,
2009-06-09, 00:44:04,VALID,1001.63,VALID,0,VALID,91.4944,VALID,0,VALID,23.1531,VALID,66,VALID,1.19766,
2009-06-09, 00:45:04,VALID,1001.63,VALID,0,VALID,90.8993,VALID,0,VALID,23.1354,VALID,77,VALID,1.07539,
2009-06-09, 00:46:04,VALID,1001.64,VALID,0,VALID,90.7772,VALID,0,VALID,23.1159,VALID,75,VALID,1.13242,
2009-06-09, 00:47:04,VALID,1001.63,VALID,0,VALID,91.2655,VALID,0,VALID,23.0769,VALID,66,VALID,1.44062,
2009-06-09, 00:48:04,VALID,1001.65,VALID,0,VALID,91.1816,VALID,0.112286,VALID,23.0361,VALID,72,VALID,1.24297,
2009-06-09, 00:49:04,VALID,1001.63,VALID,0,VALID,91.1968,VALID,0.112286,VALID,23.0183,VALID,74,VALID,0.749219,
2009-06-09, 00:50:04,VALID,1001.62,VALID,0,VALID,91.2579,VALID,0.112286,VALID,22.9581,VALID,74,VALID,0.741016,
2009-06-09, 00:51:04,VALID,1001.61,VALID,0,VALID,91.7462,VALID,0,VALID,22.9598,VALID,73,VALID,1.20469,
2009-06-09, 00:52:04,VALID,1001.63,VALID,0,VALID,91.6699,VALID,0,VALID,22.9403,VALID,74,VALID,0.939062,
2009-06-09, 00:53:04,VALID,1001.62,VALID,0,VALID,91.7691,VALID,0,VALID,22.9013,VALID,86,VALID,0.940234,
2009-06-09, 00:54:04,VALID,1001.63,VALID,0,VALID,91.9598,VALID,0,VALID,22.9013,VALID,89,VALID,1.50508,
2009-06-09, 00:55:04,VALID,1001.61,VALID,0,VALID,92.2421,VALID,0,VALID,22.8818,VALID,83,VALID,1.19062,
2009-06-09, 00:56:04,VALID,1001.6,VALID,0,VALID,92.1734,VALID,0,VALID,22.9013,VALID,83,VALID,0.79375,
2009-06-09, 00:57:04,VALID,1001.55,VALID,0,VALID,92.2192,VALID,0,VALID,22.8818,VALID,83,VALID,0.805859,
2009-06-09, 00:58:04,VALID,1001.56,VALID,0,VALID,92.1734,VALID,0,VALID,22.8623,VALID,80,VALID,0.848828,
2009-06-09, 00:59:04,VALID,1001.54,VALID,0,VALID,92.2574,VALID,0,VALID,22.8623,VALID,67,VALID,0.675391,
2009-06-09, 01:00:04,VALID,1001.54,VALID,0,VALID,92.2803,VALID,0,VALID,22.8623,VALID,70,VALID,0.776953,
2009-06-09, 01:01:04,VALID,1001.55,VALID,0,VALID,92.1963,VALID,0,VALID,22.8427,VALID,69,VALID,0.413281,
2009-06-09, 01:02:04,VALID,1001.5,VALID,0,VALID,92.059,VALID,0,VALID,22.8037,VALID,69,VALID,0.197656,
2009-06-09, 01:03:04,VALID,1001.53,VALID,0,VALID,92.204,VALID,0,VALID,22.7842,VALID,8,VALID,0.432031,
2009-06-09, 01:04:04,VALID,1001.53,VALID,0,VALID,92.265,VALID,0,VALID,22.763,VALID,360,VALID,0.253906,
2009-06-09, 01:05:04,VALID,1001.53,VALID,0,VALID,92.4405,VALID,0,VALID,22.8037,VALID,360,VALID,0.194531,
2009-06-09, 01:06:04,VALID,1001.5,VALID,0,VALID,92.4023,VALID,0,VALID,22.802,VALID,360,VALID,0.3625,
2009-06-09, 01:07:04,VALID,1001.52,VALID,0,VALID,92.2421,VALID,0,VALID,22.7825,VALID,360,VALID,0.470703,
2009-06-09, 01:08:04,VALID,1001.55,VALID,0,VALID,92.1887,VALID,0,VALID,22.7842,VALID,360,VALID,0.279297,
2009-06-09, 01:09:04,VALID,1001.54,VALID,0,VALID,92.3413,VALID,0,VALID,22.8037,VALID,360,VALID,0.442187,
2009-06-09, 01:10:04,VALID,1001.5,VALID,0,VALID,92.326,VALID,0,VALID,22.8427,VALID,360,VALID,0.126172,
2009-06-09, 01:11:04,VALID,1001.47,VALID,0,VALID,92.2268,VALID,0,VALID,22.8623,VALID,360,VALID,0.00351562,
2009-06-09, 01:12:04,VALID,1001.45,VALID,0,VALID,92.2497,VALID,0,VALID,22.8818,VALID,360,VALID,0.549609,
2009-06-09, 01:13:04,VALID,1001.43,VALID,0,VALID,92.2192,VALID,0,VALID,22.8605,VALID,360,VALID,0.557031,
2009-06-09, 01:14:04,VALID,1001.43,VALID,0,VALID,91.9827,VALID,0,VALID,22.9208,VALID,360,VALID,0.165625,
2009-06-09, 01:15:04,VALID,1001.4,VALID,0,VALID,91.9751,VALID,0.112286,VALID,22.9403,VALID,360,VALID,0.351172,
2009-06-09, 01:16:04,VALID,1001.38,VALID,0,VALID,91.9217,VALID,0,VALID,22.9403,VALID,360,VALID,0.143359,
2009-06-09, 01:17:04,VALID,1001.39,VALID,0,VALID,91.853,VALID,0,VALID,22.9598,VALID,360,VALID,0,
2009-06-09, 01:18:04,VALID,1001.38,VALID,0,VALID,91.7233,VALID,0,VALID,22.9598,VALID,360,VALID,0.0386719,
2009-06-09, 01:19:04,VALID,1001.43,VALID,0,VALID,91.6317,VALID,0,VALID,22.919,VALID,360,VALID,0,
2009-06-09, 01:20:04,VALID,1001.39,VALID,0,VALID,91.4028,VALID,0,VALID,22.9013,VALID,14,VALID,0.469922,
2009-06-09, 01:21:04,VALID,1001.37,VALID,0,VALID,91.5326,VALID,0,VALID,22.8818,VALID,61,VALID,0.35625,
2009-06-09, 01:22:04,VALID,1001.34,VALID,0,VALID,91.6394,VALID,0,VALID,22.8623,VALID,61,VALID,0.186719,
2009-06-09, 01:23:04,VALID,1001.39,VALID,0,VALID,91.6546,VALID,0,VALID,22.8427,VALID,61,VALID,0.0492188,
2009-06-09, 01:24:04,VALID,1001.35,VALID,0,VALID,91.6623,VALID,0,VALID,22.8037,VALID,61,VALID,0.271094,
2009-06-09, 01:25:04,VALID,1001.34,VALID,0,VALID,91.7462,VALID,0,VALID,22.7842,VALID,61,VALID,0,
2009-06-09, 01:26:04,VALID,1001.33,VALID,0,VALID,91.8454,VALID,0,VALID,22.7452,VALID,61,VALID,0.000390625,
2009-06-09, 01:27:04,VALID,1001.29,VALID,0,VALID,91.9751,VALID,0,VALID,22.7257,VALID,61,VALID,0.0492188,
2009-06-09, 01:28:04,VALID,1001.29,VALID,0,VALID,92.1124,VALID,0,VALID,22.6867,VALID,61,VALID,0,
2009-06-09, 01:29:04,VALID,1001.28,VALID,0,VALID,92.2345,VALID,0,VALID,22.6867,VALID,60,VALID,0.375391,
2009-06-09, 01:30:04,VALID,1001.26,VALID,0,VALID,92.204,VALID,0,VALID,22.6672,VALID,60,VALID,0.335938,
2009-06-09, 01:31:04,VALID,1001.26,VALID,0,VALID,92.2192,VALID,0,VALID,22.6282,VALID,60,VALID,0.00195313,
2009-06-09, 01:32:04,VALID,1001.23,VALID,0,VALID,92.1963,VALID,0,VALID,22.6087,VALID,60,VALID,0.271484,
2009-06-09, 01:33:04,VALID,1001.21,VALID,0,VALID,92.7685,VALID,0,VALID,22.6087,VALID,60,VALID,0.621484,
2009-06-09, 01:34:04,VALID,1001.17,VALID,0,VALID,92.8296,VALID,0,VALID,22.6689,VALID,60,VALID,0.562109,
2009-06-09, 01:35:04,VALID,1001.17,VALID,0,VALID,92.7457,VALID,0,VALID,22.6867,VALID,60,VALID,0.189453,
2009-06-09, 01:36:04,VALID,1001.21,VALID,0,VALID,92.3413,VALID,0,VALID,22.6477,VALID,60,VALID,0,
2009-06-09, 01:37:04,VALID,1001.19,VALID,0,VALID,92.3947,VALID,0,VALID,22.6087,VALID,65,VALID,0.764844,
2009-06-09, 01:38:04,VALID,1001.16,VALID,0,VALID,93.1348,VALID,0,VALID,22.6477,VALID,65,VALID,0.526953,
2009-06-09, 01:39:04,VALID,1001.19,VALID,0,VALID,92.9822,VALID,0,VALID,22.6867,VALID,65,VALID,0.326172,
2009-06-09, 01:40:04,VALID,1001.16,VALID,0,VALID,92.7457,VALID,0.112286,VALID,22.6672,VALID,65,VALID,0.0511719,
2009-06-09, 01:41:04,VALID,1001.19,VALID,0,VALID,92.7075,VALID,0,VALID,22.6867,VALID,65,VALID,0.00117188,
2009-06-09, 01:42:04,VALID,1001.2,VALID,0,VALID,92.8525,VALID,0,VALID,22.6867,VALID,65,VALID,1.01758,
2009-06-09, 01:43:04,VALID,1001.19,VALID,0,VALID,92.4863,VALID,0,VALID,22.6672,VALID,61,VALID,1.26953,
2009-06-09, 01:44:04,VALID,1001.17,VALID,0,VALID,92.3489,VALID,0,VALID,22.6282,VALID,47,VALID,1.09141,
2009-06-09, 01:45:04,VALID,1001.18,VALID,0,VALID,92.1048,VALID,0,VALID,22.5696,VALID,47,VALID,1.02266,
2009-06-09, 01:46:04,VALID,1001.19,VALID,0,VALID,92.1734,VALID,0,VALID,22.5306,VALID,46,VALID,0.750391,
2009-06-09, 01:47:04,VALID,1001.17,VALID,0,VALID,92.204,VALID,0,VALID,22.4916,VALID,45,VALID,0.723828,
2009-06-09, 01:48:04,VALID,1001.19,VALID,0,VALID,92.4252,VALID,0,VALID,22.4721,VALID,45,VALID,0.525391,
2009-06-09, 01:49:04,VALID,1001.16,VALID,0,VALID,92.7075,VALID,0,VALID,22.4721,VALID,12,VALID,0.748828,
2009-06-09, 01:50:04,VALID,1001.17,VALID,0,VALID,92.5854,VALID,0,VALID,22.4526,VALID,357,VALID,0.603516,
2009-06-09, 01:51:04,VALID,1001.16,VALID,0,VALID,92.7609,VALID,0,VALID,22.4721,VALID,310,VALID,0.628516,
2009-06-09, 01:52:04,VALID,1001.18,VALID,0,VALID,92.822,VALID,0,VALID,22.4526,VALID,309,VALID,0.159766,
2009-06-09, 01:53:04,VALID,1001.16,VALID,0,VALID,92.8906,VALID,0,VALID,22.4526,VALID,315,VALID,0.260156,
2009-06-09, 01:54:04,VALID,1001.16,VALID,0,VALID,93.0966,VALID,0,VALID,22.4526,VALID,356,VALID,0.637891,
2009-06-09, 01:55:04,VALID,1001.19,VALID,0,VALID,93.028,VALID,0,VALID,22.4543,VALID,56,VALID,0.763672,
2009-06-09, 01:56:04,VALID,1001.16,VALID,0,VALID,93.1653,VALID,0,VALID,22.4721,VALID,56,VALID,0.800781,
2009-06-09, 01:57:04,VALID,1001.16,VALID,0,VALID,92.8983,VALID,0,VALID,22.4721,VALID,56,VALID,0.936719,
2009-06-09, 01:58:04,VALID,1001.15,VALID,0,VALID,92.41,VALID,0,VALID,22.4738,VALID,60,VALID,0.612891,
2009-06-09, 01:59:04,VALID,1001.15,VALID,0,VALID,92.3871,VALID,0,VALID,22.4331,VALID,59,VALID,0.670313,
2009-06-09, 02:00:04,VALID,1001.12,VALID,0,VALID,92.3642,VALID,0,VALID,22.4136,VALID,53,VALID,0.883594,
2009-06-09, 02:01:04,VALID,1001.13,VALID,0,VALID,92.6465,VALID,0,VALID,22.4543,VALID,49,VALID,1.00664,
2009-06-09, 02:02:04,VALID,1001.1,VALID,0,VALID,92.4481,VALID,0,VALID,22.4331,VALID,45,VALID,0.999219,
2009-06-09, 02:03:04,VALID,1001.09,VALID,0,VALID,92.3184,VALID,0,VALID,22.4331,VALID,45,VALID,0.907031,
2009-06-09, 02:04:04,VALID,1001.08,VALID,0,VALID,92.2879,VALID,0,VALID,22.4153,VALID,45,VALID,0.681641,
2009-06-09, 02:05:04,VALID,1001.03,VALID,0,VALID,92.2955,VALID,0,VALID,22.3941,VALID,45,VALID,0.845312,
2009-06-09, 02:06:04,VALID,1001.03,VALID,0,VALID,92.6236,VALID,0,VALID,22.3941,VALID,43,VALID,1.08555,
2009-06-09, 02:07:04,VALID,1001.04,VALID,0,VALID,92.8448,VALID,0,VALID,22.3746,VALID,43,VALID,0.725391,
2009-06-09, 02:08:04,VALID,1001,VALID,0,VALID,92.6083,VALID,0,VALID,22.3551,VALID,43,VALID,0.414844,
2009-06-09, 02:09:04,VALID,1001.02,VALID,0,VALID,92.5549,VALID,0,VALID,22.3161,VALID,43,VALID,0.485547,
2009-06-09, 02:10:04,VALID,1001,VALID,0,VALID,92.8372,VALID,0,VALID,22.3178,VALID,43,VALID,0.305859,
2009-06-09, 02:11:04,VALID,1000.99,VALID,0,VALID,92.9059,VALID,0,VALID,22.3178,VALID,43,VALID,0.304688,
2009-06-09, 02:12:04,VALID,1000.99,VALID,0,VALID,93.0508,VALID,0,VALID,22.3178,VALID,43,VALID,0.270703,
2009-06-09, 02:13:04,VALID,1001,VALID,0,VALID,93.1882,VALID,0,VALID,22.3356,VALID,43,VALID,0.286328,
2009-06-09, 02:14:04,VALID,1001.01,VALID,0,VALID,93.15,VALID,0,VALID,22.3356,VALID,43,VALID,0.412109,
2009-06-09, 02:15:04,VALID,1001.03,VALID,0,VALID,93.1119,VALID,0,VALID,22.3551,VALID,43,VALID,0.282813,
2009-06-09, 02:16:04,VALID,1001.06,VALID,0,VALID,93.0051,VALID,0,VALID,22.3356,VALID,43,VALID,0.226953,
2009-06-09, 02:17:04,VALID,1001.09,VALID,0,VALID,93.1348,VALID,0,VALID,22.3551,VALID,43,VALID,0.391016,
2009-06-09, 02:18:04,VALID,1001.1,VALID,0,VALID,93.1424,VALID,0,VALID,22.3958,VALID,43,VALID,0.360547,
2009-06-09, 02:19:04,VALID,1001.07,VALID,0,VALID,93.0585,VALID,0,VALID,22.4136,VALID,43,VALID,0.133984,
2009-06-09, 02:20:04,VALID,1001.08,VALID,0,VALID,93.0051,VALID,0,VALID,22.4331,VALID,43,VALID,0,
2009-06-09, 02:21:04,VALID,1001.09,VALID,0,VALID,92.8906,VALID,0,VALID,22.4543,VALID,43,VALID,0,
2009-06-09, 02:22:04,VALID,1001.07,VALID,0,VALID,92.6465,VALID,0,VALID,22.4136,VALID,43,VALID,0.162891,
2009-06-09, 02:23:04,VALID,1001.08,VALID,0,VALID,92.7838,VALID,0,VALID,22.3941,VALID,43,VALID,0.525,
2009-06-09, 02:24:04,VALID,1001.06,VALID,0,VALID,92.8372,VALID,0,VALID,22.4136,VALID,58,VALID,1.06445,
2009-06-09, 02:25:04,VALID,1001.1,VALID,0,VALID,92.1582,VALID,0,VALID,22.4348,VALID,58,VALID,1.20586,
2009-06-09, 02:26:04,VALID,1001.07,VALID,0,VALID,92.0209,VALID,0,VALID,22.4136,VALID,57,VALID,0.895703,
2009-06-09, 02:27:04,VALID,1001.11,VALID,0,VALID,91.8988,VALID,0,VALID,22.4153,VALID,55,VALID,0.588672,
2009-06-09, 02:28:04,VALID,1001.1,VALID,0,VALID,92.4405,VALID,0,VALID,22.3746,VALID,60,VALID,0.951172,
2009-06-09, 02:29:04,VALID,1001.09,VALID,0,VALID,92.5931,VALID,0,VALID,22.4136,VALID,60,VALID,0.764453,
2009-06-09, 02:30:04,VALID,1001.12,VALID,0,VALID,92.5702,VALID,0,VALID,22.3941,VALID,60,VALID,0.571875,
2009-06-09, 02:31:04,VALID,1001.07,VALID,0,VALID,92.616,VALID,0,VALID,22.3941,VALID,60,VALID,0.600391,
2009-06-09, 02:32:04,VALID,1001.08,VALID,0,VALID,92.616,VALID,0,VALID,22.4153,VALID,59,VALID,0.531641,
2009-06-09, 02:33:04,VALID,1001.07,VALID,0,VALID,92.8372,VALID,0,VALID,22.3746,VALID,59,VALID,0.601172,
2009-06-09, 02:34:04,VALID,1001.09,VALID,0,VALID,92.9745,VALID,0,VALID,22.4348,VALID,59,VALID,0.558203,
2009-06-09, 02:35:04,VALID,1001.09,VALID,0,VALID,92.9059,VALID,0,VALID,22.4136,VALID,60,VALID,0.595312,
2009-06-09, 02:36:04,VALID,1001.09,VALID,0,VALID,92.9364,VALID,0,VALID,22.4136,VALID,63,VALID,0.823438,
2009-06-09, 02:37:04,VALID,1001.05,VALID,0,VALID,92.9745,VALID,0,VALID,22.4153,VALID,63,VALID,0.704687,
2009-06-09, 02:38:04,VALID,1001.01,VALID,0,VALID,92.8448,VALID,0,VALID,22.4136,VALID,63,VALID,0.844922,
2009-06-09, 02:39:04,VALID,1001.03,VALID,0,VALID,92.6312,VALID,0,VALID,22.3958,VALID,63,VALID,0.846094,
2009-06-09, 02:40:04,VALID,1001.01,VALID,0,VALID,92.4328,VALID,0,VALID,22.3161,VALID,64,VALID,0.666016,
2009-06-09, 02:41:04,VALID,1001,VALID,0,VALID,92.3871,VALID,0,VALID,22.2771,VALID,64,VALID,0.421484,
2009-06-09, 02:42:04,VALID,1000.97,VALID,0,VALID,92.532,VALID,0,VALID,22.2788,VALID,63,VALID,0.584766,
2009-06-09, 02:43:04,VALID,1000.94,VALID,0,VALID,92.6846,VALID,0,VALID,22.2592,VALID,63,VALID,0.298828,
2009-06-09, 02:44:04,VALID,1000.96,VALID,0,VALID,92.8067,VALID,0,VALID,22.2592,VALID,63,VALID,0,
2009-06-09, 02:45:04,VALID,1000.93,VALID,0,VALID,92.9898,VALID,0,VALID,22.2381,VALID,63,VALID,0.13125,
2009-06-09, 02:46:04,VALID,1000.95,VALID,0,VALID,93.1348,VALID,0,VALID,22.2576,VALID,63,VALID,0.295703,
2009-06-09, 02:47:04,VALID,1000.91,VALID,0,VALID,93.1653,VALID,0,VALID,22.2576,VALID,63,VALID,0.575781,
2009-06-09, 02:48:04,VALID,1000.93,VALID,0,VALID,93.1805,VALID,0,VALID,22.2381,VALID,32,VALID,0.694141,
2009-06-09, 02:49:04,VALID,1000.89,VALID,0,VALID,93.2492,VALID,0,VALID,22.2381,VALID,24,VALID,0.83125,
2009-06-09, 02:50:04,VALID,1000.96,VALID,0,VALID,93.3866,VALID,0,VALID,22.2576,VALID,24,VALID,0.948828,
2009-06-09, 02:51:04,VALID,1000.99,VALID,0,VALID,92.9517,VALID,0,VALID,22.2592,VALID,31,VALID,0.793359,
2009-06-09, 02:52:04,VALID,1000.99,VALID,0,VALID,93.2034,VALID,0,VALID,22.2186,VALID,33,VALID,0.524219,
2009-06-09, 02:53:04,VALID,1001.01,VALID,0,VALID,93.0661,VALID,0,VALID,22.2202,VALID,20,VALID,0.430078,
2009-06-09, 02:54:04,VALID,1000.96,VALID,0,VALID,93.1424,VALID,0,VALID,22.199,VALID,5,VALID,0.137891,
2009-06-09, 02:55:04,VALID,1000.93,VALID,0,VALID,93.5086,VALID,0,VALID,22.2397,VALID,6,VALID,1.10234,
2009-06-09, 02:56:04,VALID,1000.92,VALID,0,VALID,93.4094,VALID,0,VALID,22.2381,VALID,17,VALID,1.09922,
2009-06-09, 02:57:04,VALID,1000.88,VALID,0,VALID,93.4323,VALID,0,VALID,22.2576,VALID,17,VALID,1.21875,
2009-06-09, 02:58:04,VALID,1000.89,VALID,0,VALID,92.9517,VALID,0,VALID,22.2592,VALID,22,VALID,1.24766,
2009-06-09, 02:59:04,VALID,1000.88,VALID,0,VALID,93.0127,VALID,0,VALID,22.2381,VALID,27,VALID,1.23789,
2009-06-09, 03:00:04,VALID,1000.89,VALID,0,VALID,93.1043,VALID,0,VALID,22.2397,VALID,28,VALID,1.30703,
2009-06-09, 03:01:04,VALID,1000.89,VALID,0,VALID,92.7151,VALID,0,VALID,22.2397,VALID,29,VALID,0.842578,
2009-06-09, 03:02:04,VALID,1000.88,VALID,0,VALID,92.5473,VALID,0,VALID,22.16,VALID,31,VALID,0.679297,
2009-06-09, 03:03:04,VALID,1000.9,VALID,0,VALID,92.5931,VALID,0,VALID,22.1227,VALID,31,VALID,0.1875,
2009-06-09, 03:04:04,VALID,1000.87,VALID,0,VALID,93.1424,VALID,0,VALID,22.121,VALID,31,VALID,0.532812,
2009-06-09, 03:05:04,VALID,1000.85,VALID,0,VALID,93.3255,VALID,0,VALID,22.1795,VALID,2,VALID,0.880469,
2009-06-09, 03:06:04,VALID,1000.82,VALID,0,VALID,93.1653,VALID,0,VALID,22.1795,VALID,2,VALID,0.638672,
2009-06-09, 03:07:04,VALID,1000.87,VALID,0,VALID,93.1119,VALID,0,VALID,22.1795,VALID,2,VALID,0.505859,
2009-06-09, 03:08:04,VALID,1000.84,VALID,0,VALID,93.1043,VALID,0,VALID,22.199,VALID,2,VALID,0.605859,
2009-06-09, 03:09:04,VALID,1000.83,VALID,0,VALID,93.0814,VALID,0,VALID,22.2186,VALID,335,VALID,0.858984,
2009-06-09, 03:10:04,VALID,1000.86,VALID,0,VALID,93.1119,VALID,0,VALID,22.2381,VALID,325,VALID,0.431641,
2009-06-09, 03:11:04,VALID,1000.85,VALID,0,VALID,92.9135,VALID,0,VALID,22.2186,VALID,2,VALID,0.8625,
2009-06-09, 03:12:04,VALID,1000.86,VALID,0,VALID,92.9364,VALID,0,VALID,22.2381,VALID,14,VALID,0.888672,
2009-06-09, 03:13:04,VALID,1000.83,VALID,0,VALID,92.8372,VALID,0,VALID,22.2186,VALID,13,VALID,1.24688,
2009-06-09, 03:14:04,VALID,1000.85,VALID,0,VALID,92.265,VALID,0.112286,VALID,22.1795,VALID,12,VALID,1.03633,
2009-06-09, 03:15:04,VALID,1000.86,VALID,0,VALID,92.3108,VALID,0,VALID,22.1422,VALID,12,VALID,0.771094,
2009-06-09, 03:16:04,VALID,1000.88,VALID,0,VALID,92.4786,VALID,0,VALID,22.1227,VALID,6,VALID,0.632813,
2009-06-09, 03:17:04,VALID,1000.87,VALID,0,VALID,92.822,VALID,0,VALID,22.1015,VALID,306,VALID,0.535937,
2009-06-09, 03:18:04,VALID,1000.88,VALID,0,VALID,93.0585,VALID,0,VALID,22.1405,VALID,303,VALID,0.464844,
2009-06-09, 03:19:04,VALID,1000.85,VALID,0,VALID,93.234,VALID,0,VALID,22.1795,VALID,303,VALID,0.477734,
2009-06-09, 03:20:04,VALID,1000.84,VALID,0,VALID,93.1271,VALID,0,VALID,22.199,VALID,341,VALID,0.662109,
2009-06-09, 03:21:04,VALID,1000.89,VALID,0,VALID,93.1805,VALID,0,VALID,22.2186,VALID,344,VALID,0.408984,
2009-06-09, 03:22:04,VALID,1000.9,VALID,0,VALID,93.1729,VALID,0,VALID,22.2592,VALID,344,VALID,0.383594,
2009-06-09, 03:23:04,VALID,1000.92,VALID,0,VALID,93.0814,VALID,0,VALID,22.2381,VALID,344,VALID,0.464844,
2009-06-09, 03:24:04,VALID,1000.95,VALID,0,VALID,93.1348,VALID,0,VALID,22.2771,VALID,344,VALID,0.535937,
2009-06-09, 03:25:04,VALID,1000.95,VALID,0,VALID,93.0585,VALID,0,VALID,22.3178,VALID,344,VALID,0.560547,
2009-06-09, 03:26:04,VALID,1000.92,VALID,0,VALID,93.0127,VALID,0,VALID,22.3568,VALID,360,VALID,0.673047,
2009-06-09, 03:27:04,VALID,1000.96,VALID,0,VALID,92.7914,VALID,0,VALID,22.3746,VALID,10,VALID,0.595312,
2009-06-09, 03:28:04,VALID,1000.93,VALID,0,VALID,92.471,VALID,0,VALID,22.4348,VALID,36,VALID,0.826563,
2009-06-09, 03:29:04,VALID,1000.92,VALID,0,VALID,92.0056,VALID,0,VALID,22.4526,VALID,36,VALID,0.608594,
2009-06-09, 03:30:04,VALID,1000.95,VALID,0,VALID,91.6165,VALID,0,VALID,22.4721,VALID,36,VALID,0.375391,
2009-06-09, 03:31:04,VALID,1000.91,VALID,0,VALID,91.4868,VALID,0,VALID,22.4721,VALID,36,VALID,0.380469,
2009-06-09, 03:32:04,VALID,1000.9,VALID,0,VALID,91.3418,VALID,0,VALID,22.4526,VALID,36,VALID,0.669531,
2009-06-09, 03:33:04,VALID,1000.9,VALID,0,VALID,91.2731,VALID,0,VALID,22.4543,VALID,31,VALID,0.532031,
2009-06-09, 03:34:04,VALID,1000.94,VALID,0,VALID,91.0443,VALID,0,VALID,22.4331,VALID,31,VALID,0.0347656,
2009-06-09, 03:35:04,VALID,1000.94,VALID,0,VALID,91.2274,VALID,0,VALID,22.4136,VALID,31,VALID,0.0511719,
2009-06-09, 03:36:04,VALID,1000.94,VALID,0,VALID,91.3952,VALID,0,VALID,22.4136,VALID,32,VALID,0.0648438,
2009-06-09, 03:37:04,VALID,1001,VALID,0,VALID,91.4944,VALID,0,VALID,22.4136,VALID,32,VALID,0.0914062,
2009-06-09, 03:38:04,VALID,1000.99,VALID,0,VALID,91.5936,VALID,0,VALID,22.4348,VALID,33,VALID,0.487891,
2009-06-09, 03:39:04,VALID,1001,VALID,0,VALID,91.4181,VALID,0,VALID,22.4331,VALID,45,VALID,0.438281,
2009-06-09, 03:40:04,VALID,1000.94,VALID,0,VALID,91.2731,VALID,0,VALID,22.4136,VALID,45,VALID,0.515625,
2009-06-09, 03:41:04,VALID,1000.99,VALID,0,VALID,91.4181,VALID,0,VALID,22.4136,VALID,45,VALID,0.543359,
2009-06-09, 03:42:04,VALID,1001,VALID,0,VALID,91.2045,VALID,0,VALID,22.3941,VALID,45,VALID,0.512109,
2009-06-09, 03:43:04,VALID,1001,VALID,0,VALID,91.4639,VALID,0,VALID,22.3746,VALID,55,VALID,0.666406,
2009-06-09, 03:44:04,VALID,1000.98,VALID,0,VALID,91.7309,VALID,0,VALID,22.3746,VALID,55,VALID,0.765234,
2009-06-09, 03:45:04,VALID,1001.02,VALID,0,VALID,91.5326,VALID,0,VALID,22.3551,VALID,55,VALID,0.614844,
2009-06-09, 03:46:04,VALID,1001,VALID,0,VALID,91.3342,VALID,0,VALID,22.3356,VALID,55,VALID,0.336719,